Location: Crescent
(42.8242°N, 73.7329°W)
Time: 17:35:19
(UTC+00:00)

Vanguard 1 - Pass Details

Date: 24 February 2026
Orbit: 653 x 3818 km, 34.2° (Epoch: 5 March)

Event Time Altitude Azimuth Distance (km) Brightness Sun altitude
Rises 01:57:39 0° 277° (W) 6,482 15.1 -36.8°
Reaches altitude 10° 02:02:43 10° 266° (W) 5,901 14.6 -37.7°
Maximum altitude 02:16:39 25° 220° (SW) 5,497 13.8 -40.0°
Enters shadow 02:31:09 13° 179° (S) 6,653 14.0 -42.2°
Drops below altitude 10° 02:33:02 10° 175° (S) 6,870 - -42.5°
Sets 02:39:53 0° 164° (SSE) 7,716 - -43.6°
